Showing default

PEAKSAT, 68416

Orbit data source: Space-Track

PEAKSAT, 68416 is a Greek payload satellite in SSO that was launched on Mon, 30 Mar 2026 UTC via an FALCON 9 launch vehicle from the Air Force Western Test Range (AFWTR). Payload-class satellites include a variety of spacecraft equipped with specific instruments for various scientific and technological missions. These include communications satellites like Starlink; space stations such as the ISS; scientific satellites like the Hubble; Earth observation satellites from companies like Planet Labs, Umbra, and HawkEye 360; GPS; miniature CubeSats for education and research; and military/defense satellites.

Loading next visibility...
Identifier
68416, 2026-067A
Orbit
SSO
Country
Flag of GRGR / GREC
Related business
Manufacturer
AUTH
Mission
Operational Amateur Technology
Bus & Motor
CUBESAT 3U, Unknown motor
Mass
~5 kg wet, ~5 kg dry
Launch date (UTC)
2026-03-30 (6 months ago)
Launch vehicle
FALCON 9
Launch site
Air Force Western Test Range (AFWTR)
Object type
Payload
Rocket body
Debris
Shape & HBR
Box, 0.2 m
Radar Cross Section
0.080 m², Medium (>0.1 m² and < 1m²)

Expand to show TLE details & history
Last TLE update: 1 day ago

TLE from 1 day ago
0 PEAKSAT
1 68416U 26067A   26262.62527937  .00004903  00000-0  22743-3 0  9992
2 68416  97.4650 220.1444 0001152  15.6469 344.4802 15.20512338 26299
Epoch: 2026-09-19T15:00Z
TLE epoch observation values (Epoch: 2026-09-19T15:00:24.137Z)
Latitude
Longitude
-3.4873°
Altitude
506.619 km
Speed
7.611 km/s
True Right ascension
14h 40m 34s
True Declination
0° 00' 00"
Sunlit
Object was in daylight at epoch
Visualization orbit readout
Latitude
Unknown
Longitude
Unknown
Altitude
Unknown
Speed
Unknown
Apparent Right ascension
Unknown
Apparent Declination
Unknown
Sunlit
N/A
Visualization observer readout
Local Sidereal Time
07:42:41
Azimuth
Unknown
Elevation
Unknown
Doppler factor
Unknown
Orbital elements
Apogee altitude
502.054 km
Perigee altitude
500.469 km
Semi-major axis
6,879.399 km
Eccentricity
0.00012
Inclination
97.465°
RAAN
220.1444°
Arg. of periapsis
15.6469°
True anomaly
344.47667°
Mean anomaly
344.4802°
Eccentric anomaly
344.47843°
Mean motion
3.8038 °/min
Orbital period
94.64 mins
BSTAR
0.00022743
Loading maneuver chart data...
Computing Atmospheric mass density...
Loading historical data...
Loading historical data...
Loading historical data...
Loading historical data...
Loading historical data...
Loading historical data...
Loading historical data...

Documentation

Showing up to 5 results
|